User: anonymous   Login
Location: Unspecified
(0.0000°N, 0.0000°E)
Time: 08:29:12
(UTC+00:00)
Language:

LANDSAT 8 - Orbit

View from above orbital plane
View from above orbital plane
View from above satellite
View from above satellite

Ground track
Ground track

The orbit data is extracted from the following two-line orbital elements,

1 39084U 13008A   16339.82379721  .00000073  00000-0  26303-4 0  9995
2 39084  98.2065  47.2083 0001313  96.0217 264.1131 14.57115363202753
Epoch (UTC): 04 December 2016 19:46:16
Eccentricity: 0.0001313
inclination: 98.2065°
perigee height: 701 km
apogee height: 703 km
right ascension of ascending node: 47.2083°
argument of perigee: 96.0217°
revolutions per day: 14.57115363
mean anomaly at epoch: 264.1131°
orbit number at epoch: 20275

The dashed part of the orbit path shows where the satellite is in the earth's shadow,  

DLR